GPS BIIF-9 (PRN 26)

Last updated on Sun Dec 07 2025 00:03:19 GMT+0000 (Coordinated Universal Time)

1 40534U 15013A 25340.60632425 .00000048 00000+0 00000+0 0 9998 2 40534 53.1987 212.1443 0106780 38.3324 322.5165 2.00562830 77962
UTC large
Height (km)
Speed (km/s)
/
Latitude / Longitude
Inclination (degrees)
Orbital Period (minutes)
Azimuth
Elevation
Range (km)
Doppler Factor

Next 0 passes for location: London (51.5072 / 0.1276)

Sorry there are no passes over London.